OK,61,35,806,61,2014-10-01T01:40:00,0,28072576,187748
OK,61,35,806,61,2014-10-01T01:45:00,0,28073023,187748
OK,61,35,806,61,2014-10-01T01:50:00,0,28073472,187748
OK,61,35,806,61,2014-10-01T01:55:00,0,28073790,187748
OK,50,43,806,50,2014-10-01T02:00:00,2,28074238,187748
OK,50,43,806,50,2014-10-01T02:05:00,2,28074681,187748
OK,50,43,806,50,2014-10-01T02:15:00,0,28075127,187748
OK,50,43,806,50,2014-10-01T02:20:00,0,28075576,187748
OK,50,43,806,50,2014-10-01T02:30:00,0,28076408,187748
OK,50,43,806,50,2014-10-01T02:35:00,0,28076857,187748
OK,50,43,806,50,2014-10-01T02:40:00,0,28077306,187748
OK,50,43,806,50,2014-10-01T02:50:00,0,28078158,187748
OK,50,43,806,50,2014-10-01T02:55:00,0,28078606,187748
OK,50,43,806,50,2014-10-01T03:00:00,0,28079052,187748
OK,50,43,806,50,2014-10-01T03:05:00,0,28079498,187748
OK,50,43,806,50,2014-10-01T03:10:00,0,28079943,187748
OK,50,43,806,50,2014-10-01T03:20:00,0,28080726,187748
OK,50,43,806,50,2014-10-01T03:25:00,0,28081175,187748
OK,50,43,806,50,2014-10-01T03:30:00,0,28081623,187748
OK,50,43,806,50,2014-10-01T03:35:00,0,28082071,187748
OK,83,26,806,83,2014-10-01T03:40:00,1,28082519,187748
OK,72,30,806,72,2014-10-01T03:50:00,1,28083385,187748
OK,72,30,806,72,2014-10-01T03:55:00,0,28083834,187748
OK,72,30,806,72,2014-10-01T04:00:00,0,28084283,187748
OK,72,30,806,72,2014-10-01T04:05:00,0,28084720,187748
OK,44,49,806,44,2014-10-01T04:10:00,1,28085149,187748
OK,44,49,806,44,2014-10-01T04:15:00,1,28085598,187748
OK,44,49,806,44,2014-10-01T04:20:00,0,28086043,187748
OK,44,49,806,44,2014-10-01T04:25:00,0,28086492,187748
OK,44,49,806,44,2014-10-01T04:30:00,0,28086934,187748
OK,44,49,806,44,2014-10-01T04:35:00,0,28087381,187748
OK,44,49,806,44,2014-10-01T04:40:00,0,28087828,187748
OK,46,47,806,46,2014-10-01T04:45:00,2,28088268,187748
OK,46,47,806,46,2014-10-01T04:50:00,2,28088701,187748
OK,48,45,806,48,2014-10-01T04:55:00,0,28089135,187748
OK,48,45,806,48,2014-10-01T05:00:00,0,28089580,187748
OK,116,18,806,116,2014-10-01T05:05:00,1,28090029,187748
OK,66,32,806,66,2014-10-01T05:10:00,4,28090470,187748
OK,81,26,806,81,2014-10-01T05:15:00,4,28090822,187748
OK,89,24,806,89,2014-10-01T05:20:00,2,28091271,187748
OK,102,21,806,102,2014-10-01T05:30:00,1,28092137,187748
OK,102,21,806,102,2014-10-01T05:35:00,1,28092584,187748
OK,102,21,806,102,2014-10-01T05:40:00,0,28093025,187748
OK,108,20,806,108,2014-10-01T05:50:00,4,28093902,187748
OK,77,28,806,77,2014-10-01T06:00:00,3,28094758,187748
OK,62,35,806,62,2014-10-01T06:05:00,5,28095206,187748
OK,81,26,806,81,2014-10-01T06:10:00,2,28095654,187748
OK,117,18,806,117,2014-10-01T06:15:00,1,28096079,187748
OK,110,19,806,110,2014-10-01T06:20:00,1,28096516,187748
OK,110,19,806,110,2014-10-01T06:25:00,1,28096957,187748
OK,105,20,806,105,2014-10-01T06:30:00,2,28097399,187748
OK,101,21,806,101,2014-10-01T06:35:00,3,28097848,187748
OK,45,48,806,45,2014-10-01T06:40:00,1,28098297,187748
OK,45,48,806,45,2014-10-01T06:45:00,0,28098733,187748
OK,45,48,806,45,2014-10-01T06:50:00,0,28099178,187748
OK,135,16,806,135,2014-10-01T07:00:00,1,28099969,187748
OK,47,46,806,47,2014-10-01T07:10:00,0,28100725,187748
OK,47,46,806,47,2014-10-01T07:20:00,0,28101545,187748
OK,86,25,806,86,2014-10-01T07:25:00,2,28101989,187748
OK,47,46,806,47,2014-10-01T07:30:00,0,28102430,187748
OK,61,35,806,61,2014-10-01T07:35:00,0,28102879,187748
OK,61,35,806,61,2014-10-01T07:40:00,0,28103305,187748
OK,61,35,806,61,2014-10-01T07:45:00,0,28103753,187748
OK,70,31,806,70,2014-10-01T07:50:00,1,28104197,187748
OK,73,29,806,73,2014-10-01T07:55:00,2,28104641,187748
OK,77,28,806,77,2014-10-01T08:00:00,1,28105080,187748
OK,110,19,806,110,2014-10-01T08:05:00,2,28105524,187748
OK,110,19,806,110,2014-10-01T08:10:00,2,28105969,187748
OK,141,15,806,141,2014-10-01T08:15:00,0,28106817,187748
OK,141,15,806,141,2014-10-01T08:20:00,0,28107244,187748
OK,39,55,806,39,2014-10-01T08:25:00,1,28107693,187748
OK,39,55,806,39,2014-10-01T08:30:00,0,28108134,187748
OK,104,20,806,104,2014-10-01T08:40:00,2,28108581,187748
OK,76,28,806,76,2014-10-01T08:50:00,0,28109458,187748
OK,93,23,806,93,2014-10-01T09:00:00,2,28110250,187748
OK,93,23,806,93,2014-10-01T09:05:00,2,28111122,187748
OK,72,30,806,72,2014-10-01T09:10:00,0,28111555,187748
OK,85,25,806,85,2014-10-01T09:20:00,2,28112000,187748
OK,90,24,806,90,2014-10-01T09:30:00,0,28112790,187748
OK,105,20,806,105,2014-10-01T09:40:00,1,28113663,187748
OK,105,20,806,105,2014-10-01T09:45:00,0,28114544,187748
OK,105,20,806,105,2014-10-01T09:50:00,0,28114900,187748
OK,105,20,806,105,2014-10-01T10:00:00,0,28115347,187748
OK,105,20,806,105,2014-10-01T10:10:00,0,28116208,187748
OK,68,31,806,68,2014-10-01T10:20:00,1,28117065,187748
OK,89,24,806,89,2014-10-01T10:25:00,4,28117939,187748
OK,90,24,806,90,2014-10-01T10:30:00,5,28118384,187748
OK,66,32,806,66,2014-10-01T10:35:00,6,28118832,187748
OK,69,31,806,69,2014-10-01T10:40:00,4,28119275,187748
OK,96,22,806,96,2014-10-01T10:45:00,1,28119723,187748
OK,96,22,806,96,2014-10-01T10:50:00,1,28120171,187748
OK,54,40,806,54,2014-10-01T11:00:00,1,28120620,187748
OK,54,40,806,54,2014-10-01T11:05:00,0,28121452,187748
OK,54,40,806,54,2014-10-01T11:10:00,0,28121891,187748
OK,52,41,806,52,2014-10-01T11:15:00,1,28122339,187748
OK,48,45,806,48,2014-10-01T11:20:00,2,28122781,187748
OK,44,49,806,44,2014-10-01T11:30:00,0,28123229,187748
OK,100,21,806,100,2014-10-01T11:40:00,2,28124110,187748
OK,48,45,806,48,2014-10-01T11:50:00,2,28124961,187748
OK,61,35,806,61,2014-10-01T11:55:00,1,28125839,187748
OK,71,30,806,71,2014-10-01T12:00:00,1,28126193,187748
OK,71,30,806,71,2014-10-01T12:05:00,1,28126640,187748
OK,71,30,806,71,2014-10-01T12:10:00,0,28127089,187748
OK,88,24,806,88,2014-10-01T12:20:00,2,28127538,187748
OK,82,26,806,82,2014-10-01T12:30:00,0,28128415,187748
OK,74,29,806,74,2014-10-01T12:35:00,1,28129299,187748
OK,74,29,806,74,2014-10-01T12:40:00,3,28129734,187748
OK,78,27,806,78,2014-10-01T12:45:00,1,28130182,187748
OK,83,26,806,83,2014-10-01T12:50:00,1,28130612,187748
OK,71,30,806,71,2014-10-01T12:55:00,2,28131059,187748
OK,60,36,806,60,2014-10-01T13:00:00,0,28131498,187748
OK,69,31,806,69,2014-10-01T13:05:00,1,28131945,187748
OK,69,31,806,69,2014-10-01T13:10:00,1,28132384,187748
OK,61,35,806,61,2014-10-01T13:15:00,1,28132830,187748
OK,61,35,806,61,2014-10-01T13:20:00,1,28133268,187748
OK,61,35,806,61,2014-10-01T13:25:00,0,28133717,187748
OK,61,35,806,61,2014-10-01T13:30:00,0,28134156,187748
OK,61,35,806,61,2014-10-01T13:35:00,0,28134605,187748
OK,61,35,806,61,2014-10-01T13:40:00,0,28135025,187748
OK,119,18,806,119,2014-10-01T13:45:00,2,28135473,187748
OK,119,18,806,119,2014-10-01T13:50:00,0,28135910,187748
OK,119,18,806,119,2014-10-01T13:55:00,0,28136359,187748
OK,57,38,806,57,2014-10-01T14:00:00,2,28136799,187748
OK,51,42,806,51,2014-10-01T14:05:00,3,28137248,187748
OK,49,44,806,49,2014-10-01T14:10:00,1,28137683,187748
OK,49,44,806,49,2014-10-01T14:15:00,0,28138131,187748
OK,49,44,806,49,2014-10-01T14:20:00,0,28138560,187748
OK,140,15,806,140,2014-10-01T14:25:00,1,28139008,187748
OK,140,15,806,140,2014-10-01T14:30:00,1,28139420,187748
OK,140,15,806,140,2014-10-01T14:35:00,0,28139868,187748
OK,111,19,806,111,2014-10-01T14:40:00,1,28140311,187748
OK,90,24,806,90,2014-10-01T14:45:00,3,28140759,187748
OK,75,28,806,75,2014-10-01T14:50:00,3,28141187,187748
OK,85,25,806,85,2014-10-01T14:55:00,2,28141634,187748
OK,97,22,806,97,2014-10-01T15:00:00,1,28142064,187748
OK,109,19,806,109,2014-10-01T15:10:00,1,28142511,187748
OK,109,19,806,109,2014-10-01T15:15:00,1,28143387,187748
OK,102,21,806,102,2014-10-01T15:25:00,2,28143835,187748
OK,88,24,806,88,2014-10-01T15:30:00,3,28144284,187748
OK,88,24,806,88,2014-10-01T15:35:00,1,28145119,187748
OK,115,18,806,115,2014-10-01T15:40:00,1,28145568,187748
OK,115,18,806,115,2014-10-01T15:45:00,1,28146017,187748
OK,115,18,806,115,2014-10-01T15:55:00,0,28146466,187748
OK,119,18,806,119,2014-10-01T16:00:00,1,28147319,187748
OK,119,18,806,119,2014-10-01T16:10:00,0,28147767,187748
OK,59,36,806,59,2014-10-01T16:15:00,1,28148617,187748
OK,80,27,806,80,2014-10-01T16:20:00,2,28149058,187748
OK,101,21,806,101,2014-10-01T16:25:00,1,28149505,187748
OK,57,38,806,57,2014-10-01T16:30:00,1,28149934,187748
OK,26,83,806,26,2014-10-01T16:40:00,1,28150380,187748
OK,39,55,806,39,2014-10-01T16:50:00,1,28151247,187748
OK,71,30,806,71,2014-10-01T16:55:00,5,28151696,187748
OK,73,29,806,73,2014-10-01T17:00:00,3,28152145,187748
OK,73,29,806,73,2014-10-01T17:05:00,0,28152591,187748
OK,73,29,806,73,2014-10-01T17:10:00,0,28153038,187748
OK,73,29,806,73,2014-10-01T17:20:00,0,28153487,187748
OK,73,29,806,73,2014-10-01T17:25:00,0,28154346,187748
OK,73,29,806,73,2014-10-01T17:30:00,0,28154789,187748
OK,73,29,806,73,2014-10-01T17:35:00,0,28155236,187748
OK,73,29,806,73,2014-10-01T17:40:00,0,28155661,187748
OK,73,29,806,73,2014-10-01T17:45:00,0,28156103,187748
OK,73,29,806,73,2014-10-01T17:55:00,0,28156552,187748
OK,73,29,806,73,2014-10-01T18:00:00,0,28157423,187748
OK,73,29,806,73,2014-10-01T18:05:00,0,28157868,187748
OK,73,29,806,73,2014-10-01T18:10:00,0,28158313,187748
OK,73,29,806,73,2014-10-01T18:15:00,0,28158759,187748
OK,42,51,806,42,2014-10-01T18:20:00,2,28159204,187748
OK,42,51,806,42,2014-10-01T18:25:00,2,28159540,187748
OK,46,47,806,46,2014-10-01T18:30:00,0,28159988,187748
OK,46,47,806,46,2014-10-01T18:35:00,0,28160437,187748
OK,46,47,806,46,2014-10-01T18:40:00,0,28160878,187748
OK,46,47,806,46,2014-10-01T18:45:00,1,28161324,187748
OK,52,41,806,52,2014-10-01T18:50:00,3,28161742,187748
OK,55,39,806,55,2014-10-01T19:00:00,0,28162190,187748
OK,55,39,806,55,2014-10-01T19:05:00,0,28163024,187748
OK,55,39,806,55,2014-10-01T19:10:00,0,28163471,187748
OK,55,39,806,55,2014-10-01T19:15:00,0,28163920,187748
OK,55,39,806,55,2014-10-01T19:20:00,0,28164353,187748
OK,55,39,806,55,2014-10-01T19:25:00,0,28164800,187748
OK,55,39,806,55,2014-10-01T19:30:00,0,28165230,187748
OK,55,39,806,55,2014-10-01T19:35:00,0,28165673,187748
OK,55,39,806,55,2014-10-01T19:40:00,0,28166114,187748
OK,55,39,806,55,2014-10-01T19:45:00,0,28166476,187748
OK,55,39,806,55,2014-10-01T19:50:00,0,28166925,187748
OK,55,39,806,55,2014-10-01T19:55:00,0,28167354,187748
OK,55,39,806,55,2014-10-01T20:00:00,0,28167788,187748
OK,55,39,806,55,2014-10-01T20:05:00,0,28168236,187748
OK,55,39,806,55,2014-10-01T20:10:00,0,28168681,187748
OK,55,39,806,55,2014-10-01T20:15:00,0,28169130,187748
OK,55,39,806,55,2014-10-01T20:20:00,0,28169578,187748
OK,55,39,806,55,2014-10-01T20:25:00,0,28170004,187748
OK,55,39,806,55,2014-10-01T20:30:00,0,28170449,187748
OK,55,39,806,55,2014-10-01T20:35:00,0,28170897,187748
OK,55,39,806,55,2014-10-01T20:40:00,0,28171334,187748
OK,55,39,806,55,2014-10-01T20:45:00,0,28171780,187748
OK,55,39,806,55,2014-10-01T20:50:00,0,28172228,187748
OK,55,39,806,55,2014-10-01T20:55:00,0,28172674,187748
OK,55,39,806,55,2014-10-01T21:00:00,0,28173120,187748
OK,55,39,806,55,2014-10-01T21:05:00,0,28173569,187748
OK,55,39,806,55,2014-10-01T21:10:00,0,28174010,187748
OK,55,39,806,55,2014-10-01T21:15:00,0,28174459,187748
OK,55,39,806,55,2014-10-01T21:20:00,0,28174885,187748
OK,55,39,806,55,2014-10-01T21:25:00,0,28175281,187748
OK,55,39,806,55,2014-10-01T21:30:00,0,28175730,187748
OK,97,22,806,97,2014-10-01T21:35:00,1,28176179,187748
OK,97,22,806,97,2014-10-01T21:45:00,0,28176628,187748
OK,97,22,806,97,2014-10-01T21:50:00,0,28177424,187748
OK,97,22,806,97,2014-10-01T21:55:00,0,28177870,187748
OK,97,22,806,97,2014-10-01T22:00:00,0,28178319,187748
OK,97,22,806,97,2014-10-01T22:05:00,0,28178766,187748
OK,97,22,806,97,2014-10-01T22:10:00,0,28179202,187748
OK,97,22,806,97,2014-10-01T22:15:00,0,28179643,187748
OK,97,22,806,97,2014-10-01T22:20:00,0,28180090,187748
OK,97,22,806,97,2014-10-01T22:25:00,0,28180489,187748
OK,97,22,806,97,2014-10-01T22:30:00,0,28180937,187748
OK,97,22,806,97,2014-10-01T22:35:00,0,28181361,187748
OK,97,22,806,97,2014-10-01T22:40:00,0,28181809,187748
OK,97,22,806,97,2014-10-01T22:45:00,0,28182256,187748
OK,97,22,806,97,2014-10-01T22:50:00,0,28182705,187748
OK,97,22,806,97,2014-10-01T22:55:00,0,28183122,187748
OK,97,22,806,97,2014-10-01T23:00:00,0,28183555,187748
OK,97,22,806,97,2014-10-01T23:05:00,0,28184000,187748
OK,97,22,806,97,2014-10-01T23:10:00,0,28184449,187748
OK,97,22,806,97,2014-10-01T23:15:00,0,28184884,187748
OK,97,22,806,97,2014-10-01T23:20:00,0,28185332,187748
OK,97,22,806,97,2014-10-01T23:25:00,0,28185763,187748
OK,97,22,806,97,2014-10-01T23:30:00,0,28186155,187748
OK,97,22,806,97,2014-10-01T23:35:00,0,28186604,187748
OK,97,22,806,97,2014-10-01T23:40:00,0,28187002,187748
OK,97,22,806,97,2014-10-01T23:45:00,0,28187444,187748
OK,97,22,806,97,2014-10-01T23:50:00,0,28187893,187748
OK,97,22,806,97,2014-10-01T23:55:00,0,28188334,187748
OK,97,22,806,97,2014-10-02T00:00:00,0,28188770,187748
OK,97,22,806,97,2014-10-02T00:05:00,0,28189219,187748
OK,97,22,806,97,2014-10-02T00:10:00,0,28189644,187748
OK,97,22,806,97,2014-10-02T00:15:00,0,28190090,187748
OK,97,22,806,97,2014-10-02T00:20:00,0,28190446,187748
OK,97,22,806,97,2014-10-02T00:25:00,0,28190892,187748
OK,97,22,806,97,2014-10-02T00:35:00,0,28191341,187748
OK,97,22,806,97,2014-10-02T00:40:00,0,28192096,187748
OK,97,22,806,97,2014-10-02T00:45:00,0,28192530,187748
OK,97,22,806,97,2014-10-02T00:50:00,0,28192973,187748
OK,97,22,806,97,2014-10-02T00:55:00,0,28193340,187748
OK,97,22,806,97,2014-10-02T01:00:00,0,28193789,187748
OK,97,22,806,97,2014-10-02T01:10:00,0,28194238,187748
OK,97,22,806,97,2014-10-02T01:15:00,0,28194687,187748
OK,97,22,806,97,2014-10-02T01:20:00,0,28195372,187748
OK,97,22,806,97,2014-10-02T01:30:00,0,28195821,187748
OK,97,22,806,97,2014-10-02T01:35:00,0,28196554,187748
OK,97,22,806,97,2014-10-02T01:40:00,0,28196979,187748
OK,97,22,806,97,2014-10-02T01:45:00,0,28197426,187748
OK,97,22,806,97,2014-10-02T01:50:00,0,28197874,187748
OK,97,22,806,97,2014-10-02T02:00:00,0,28198322,187748
OK,97,22,806,97,2014-10-02T02:05:00,0,28198771,187748
OK,97,22,806,97,2014-10-02T02:10:00,0,28199585,187748
OK,97,22,806,97,2014-10-02T02:15:00,0,28200027,187748
OK,97,22,806,97,2014-10-02T02:20:00,0,28200470,187748
OK,97,22,806,97,2014-10-02T02:25:00,0,28200919,187748
OK,97,22,806,97,2014-10-02T02:30:00,0,28201350,187748
OK,97,22,806,97,2014-10-02T02:45:00,0,28202248,187748
OK,97,22,806,97,2014-10-02T02:50:00,0,28202690,187748
OK,97,22,806,97,2014-10-02T02:55:00,0,28203138,187748
OK,97,22,806,97,2014-10-02T03:00:00,0,28203573,187748
OK,97,22,806,97,2014-10-02T03:10:00,0,28204022,187748
OK,48,45,806,48,2014-10-02T03:25:00,0,28204471,187748
OK,48,45,806,48,2014-10-02T03:30:00,0,28204920,187748
OK,88,24,806,88,2014-10-02T03:35:00,1,28205350,187748
OK,88,24,806,88,2014-10-02T03:40:00,1,28205795,187748
OK,88,24,806,88,2014-10-02T03:45:00,0,28206178,187748
OK,88,24,806,88,2014-10-02T03:55:00,0,28207076,187748
OK,88,24,806,88,2014-10-02T04:00:00,0,28207498,187748
OK,88,24,806,88,2014-10-02T04:10:00,0,28207944,187748
OK,88,24,806,88,2014-10-02T04:15:00,0,28208820,187748
OK,88,24,806,88,2014-10-02T04:20:00,0,28209259,187748
OK,88,24,806,88,2014-10-02T04:30:00,0,28209707,187748
OK,88,24,806,88,2014-10-02T04:40:00,0,28210579,187748
OK,88,24,806,88,2014-10-02T04:45:00,0,28211448,187748
OK,88,24,806,88,2014-10-02T04:50:00,0,28211826,187748
OK,185,11,806,185,2014-10-02T05:00:00,2,28212275,187748
OK,100,21,806,100,2014-10-02T05:10:00,0,28213153,187748
OK,196,11,806,196,2014-10-02T05:15:00,1,28213594,187748
OK,196,11,806,196,2014-10-02T05:20:00,0,28214040,187748
OK,52,41,806,52,2014-10-02T05:30:00,0,28214902,187748
OK,52,41,806,52,2014-10-02T05:40:00,0,28215767,187748
OK,52,41,806,52,2014-10-02T05:45:00,0,28216546,187748
OK,52,41,806,52,2014-10-02T05:50:00,0,28216994,187748
OK,51,42,806,51,2014-10-02T06:00:00,2,28217442,187748
OK,29,74,806,29,2014-10-02T06:10:00,0,28218330,187748
OK,105,20,806,105,2014-10-02T06:15:00,3,28219199,187748
OK,85,25,806,85,2014-10-02T06:20:00,4,28219574,187748
OK,84,25,806,84,2014-10-02T06:25:00,2,28220021,187748
OK,123,17,806,123,2014-10-02T06:30:00,1,28220457,187748
OK,80,27,806,80,2014-10-02T06:40:00,2,28220904,187748
OK,80,27,806,80,2014-10-02T06:45:00,0,28221571,187748
OK,75,28,806,75,2014-10-02T07:00:00,1,28222165,187748
OK,75,28,806,75,2014-10-02T07:05:00,1,28222614,187748
OK,75,28,806,75,2014-10-02T07:10:00,0,28223047,187748
OK,75,28,806,75,2014-10-02T07:15:00,0,28223481,187748
OK,75,28,806,75,2014-10-02T07:20:00,0,28223928,187748
OK,75,28,806,75,2014-10-02T07:25:00,0,28224283,187748
OK,75,28,806,75,2014-10-02T07:30:00,0,28224732,187748
OK,121,17,806,121,2014-10-02T07:40:00,1,28225181,187748
OK,54,40,806,54,2014-10-02T07:50:00,1,28226394,187748
OK,54,40,806,54,2014-10-02T08:00:00,0,28226842,187748
OK,98,22,806,98,2014-10-02T08:10:00,0,28227706,187748
OK,123,17,806,123,2014-10-02T08:20:00,1,28228514,187748
OK,125,17,806,125,2014-10-02T08:30:00,0,28229373,187748
OK,90,24,806,90,2014-10-02T08:40:00,0,28230172,187748
OK,113,19,806,113,2014-10-02T08:50:00,3,28230987,187748
OK,114,19,806,114,2014-10-02T08:55:00,0,28231859,187748
OK,74,29,806,74,2014-10-02T09:00:00,2,28232204,187748
OK,60,36,806,60,2014-10-02T09:10:00,0,28232650,187748
OK,154,14,806,154,2014-10-02T09:20:00,0,28233099,187748
OK,170,12,806,170,2014-10-02T09:25:00,1,28233972,187748
OK,170,12,806,170,2014-10-02T09:30:00,0,28234307,187748
OK,69,31,806,69,2014-10-02T09:35:00,1,28234754,187748
OK,69,31,806,69,2014-10-02T09:40:00,0,28235181,187748
OK,93,23,806,93,2014-10-02T09:45:00,1,28235630,187748
OK,93,23,806,93,2014-10-02T09:50:00,1,28236074,187748
OK,48,45,806,48,2014-10-02T09:55:00,0,28236520,187748
OK,48,45,806,48,2014-10-02T10:00:00,0,28236925,187748
OK,48,45,806,48,2014-10-02T10:05:00,0,28237371,187748
OK,78,27,806,78,2014-10-02T10:10:00,1,28237819,187748
OK,65,33,806,65,2014-10-02T10:15:00,2,28238267,187748
OK,67,32,806,67,2014-10-02T10:20:00,3,28238708,187748
OK,101,21,806,101,2014-10-02T10:25:00,1,28239156,187748
OK,101,21,806,101,2014-10-02T10:30:00,0,28239587,187748
OK,97,22,806,97,2014-10-02T10:35:00,4,28240035,187748
OK,84,25,806,84,2014-10-02T10:40:00,5,28240480,187748
OK,84,25,806,84,2014-10-02T10:45:00,1,28240928,187748
OK,84,25,806,84,2014-10-02T10:50:00,0,28241363,187748
OK,104,20,806,104,2014-10-02T11:00:00,0,28241808,187748
OK,104,20,806,104,2014-10-02T11:05:00,0,28242653,187748
OK,104,20,806,104,2014-10-02T11:15:00,0,28243102,187748
OK,100,21,806,100,2014-10-02T11:20:00,2,28243866,187748
OK,100,21,806,100,2014-10-02T11:25:00,2,28244295,187748
OK,100,21,806,100,2014-10-02T11:30:00,0,28244743,187748
OK,100,21,806,100,2014-10-02T11:35:00,0,28245192,187748
OK,100,21,806,100,2014-10-02T11:40:00,0,28245601,187748
OK,100,21,806,100,2014-10-02T11:45:00,0,28246047,187748
OK,58,37,806,58,2014-10-02T11:50:00,3,28246484,187748
OK,58,37,806,58,2014-10-02T11:55:00,3,28246933,187748
OK,73,29,806,73,2014-10-02T12:00:00,0,28247379,187748
OK,73,29,806,73,2014-10-02T12:05:00,0,28247811,187748
OK,73,29,806,73,2014-10-02T12:10:00,0,28248258,187748
OK,73,29,806,73,2014-10-02T12:15:00,0,28248706,187748
OK,73,29,806,73,2014-10-02T12:20:00,0,28249134,187748
OK,100,21,806,100,2014-10-02T12:25:00,2,28249577,187748
OK,82,26,806,82,2014-10-02T12:30:00,1,28249996,187748
OK,82,26,806,82,2014-10-02T12:35:00,0,28250394,187748
OK,82,26,806,82,2014-10-02T12:45:00,0,28251174,187748
OK,54,40,806,54,2014-10-02T13:20:00,2,28251719,187748
OK,54,40,806,54,2014-10-02T13:30:00,0,28252303,187748
OK,54,40,806,54,2014-10-02T13:35:00,0,28252745,187748
OK,54,40,806,54,2014-10-02T13:40:00,0,28253162,187748
OK,60,36,806,60,2014-10-02T13:45:00,2,28253611,187748
OK,64,33,806,64,2014-10-02T13:50:00,0,28254017,187748
OK,64,33,806,64,2014-10-02T13:55:00,0,28254337,187748
OK,64,33,806,64,2014-10-02T14:10:00,0,28254914,187748
OK,64,33,806,64,2014-10-02T14:15:00,0,28255363,187748
OK,64,33,806,64,2014-10-02T14:20:00,0,28255791,187748
OK,64,33,806,64,2014-10-02T14:25:00,0,28256240,187748
OK,64,33,806,64,2014-10-02T14:30:00,0,28256668,187748
OK,64,33,806,64,2014-10-02T14:35:00,0,28257117,187748
OK,64,33,806,64,2014-10-02T14:40:00,0,28257558,187748
OK,64,33,806,64,2014-10-02T14:45:00,0,28258006,187748
OK,64,33,806,64,2014-10-02T14:50:00,0,28258439,187748
OK,64,33,806,64,2014-10-02T14:55:00,0,28258885,187748
OK,64,33,806,64,2014-10-02T15:00:00,0,28259334,187748
OK,64,33,806,64,2014-10-02T15:05:00,1,28259781,187748
OK,64,33,806,64,2014-10-02T15:10:00,1,28260214,187748
OK,64,33,806,64,2014-10-02T15:15:00,0,28260663,187748
OK,64,33,806,64,2014-10-02T15:20:00,0,28261103,187748
OK,64,33,806,64,2014-10-02T15:25:00,0,28261485,187748
OK,64,33,806,64,2014-10-02T15:30:00,0,28261915,187748
OK,37,58,806,37,2014-10-02T15:35:00,1,28262362,187748
OK,37,58,806,37,2014-10-02T15:40:00,1,28262808,187748
OK,123,17,806,123,2014-10-02T15:45:00,3,28263246,187748
OK,42,51,806,42,2014-10-02T15:50:00,1,28263687,187748
OK,42,51,806,42,2014-10-02T15:55:00,0,28264089,187748
OK,42,51,806,42,2014-10-02T16:00:00,0,28264538,187748
OK,71,30,806,71,2014-10-02T16:05:00,0,28264976,187748
OK,71,30,806,71,2014-10-02T16:10:00,0,28265416,187748
OK,71,30,806,71,2014-10-02T16:15:00,0,28265812,187748
OK,65,33,806,65,2014-10-02T16:20:00,2,28266261,187748
OK,87,24,806,87,2014-10-02T16:25:00,2,28266710,187748
OK,105,20,806,105,2014-10-02T16:30:00,5,28267033,187748
OK,104,20,806,104,2014-10-02T16:35:00,4,28267482,187748
OK,104,20,806,104,2014-10-02T16:40:00,0,28267931,187748
OK,98,22,806,98,2014-10-02T16:45:00,0,28268373,187748
OK,98,22,806,98,2014-10-02T16:50:00,0,28268822,187748
OK,58,37,806,58,2014-10-02T16:55:00,2,28269271,187748
OK,37,58,806,37,2014-10-02T17:00:00,1,28269706,187748
OK,37,58,806,37,2014-10-02T17:05:00,0,28270155,187748
OK,37,58,806,37,2014-10-02T17:10:00,0,28270589,187748
OK,37,58,806,37,2014-10-02T17:15:00,0,28271038,187748
OK,33,65,806,33,2014-10-02T17:20:00,1,28271468,187748
OK,33,65,806,33,2014-10-02T17:25:00,1,28271916,187748
OK,33,65,806,33,2014-10-02T17:30:00,0,28272352,187748
OK,33,65,806,33,2014-10-02T17:35:00,0,28272793,187748
OK,33,65,806,33,2014-10-02T17:40:00,0,28273241,187748
OK,33,65,806,33,2014-10-02T17:45:00,0,28273687,187748
OK,33,65,806,33,2014-10-02T17:55:00,0,28274136,187748
OK,33,65,806,33,2014-10-02T18:00:00,0,28274910,187748
OK,33,65,806,33,2014-10-02T18:05:00,0,28275349,187748
OK,33,65,806,33,2014-10-02T18:10:00,0,28275794,187748
OK,33,65,806,33,2014-10-02T18:15:00,0,28276240,187748
OK,33,65,806,33,2014-10-02T18:20:00,0,28276636,187748
OK,33,65,806,33,2014-10-02T18:30:00,0,28277085,187748
OK,33,65,806,33,2014-10-02T18:40:00,0,28277534,187748
OK,33,65,806,33,2014-10-02T18:45:00,0,28278331,187748
OK,33,65,806,33,2014-10-02T19:00:00,0,28278780,187748
OK,33,65,806,33,2014-10-02T19:05:00,0,28279229,187748
OK,33,65,806,33,2014-10-02T19:10:00,0,28279674,187748
OK,33,65,806,33,2014-10-02T19:15:00,0,28280115,187748
OK,33,65,806,33,2014-10-02T19:20:00,0,28280562,187748
OK,33,65,806,33,2014-10-02T19:25:00,0,28280966,187748
OK,33,65,806,33,2014-10-02T19:35:00,0,28281864,187748
OK,33,65,806,33,2014-10-02T19:40:00,0,28282295,187748
OK,33,65,806,33,2014-10-02T19:45:00,0,28282744,187748
OK,33,65,806,33,2014-10-02T19:50:00,0,28283191,187748
OK,33,65,806,33,2014-10-02T19:55:00,0,28283621,187748
OK,33,65,806,33,2014-10-02T20:00:00,0,28283991,187748
OK,122,17,806,122,2014-10-02T20:10:00,0,28284440,187748
OK,122,17,806,122,2014-10-02T20:15:00,0,28285223,187748
OK,122,17,806,122,2014-10-02T20:20:00,0,28285659,187748
OK,122,17,806,122,2014-10-02T20:25:00,0,28286074,187748
OK,122,17,806,122,2014-10-02T20:35:00,0,28286926,187748
OK,122,17,806,122,2014-10-02T20:40:00,0,28287357,187748
OK,76,28,806,76,2014-10-03T22:35:00,0,28291637,187748
OK,76,28,806,76,2014-10-03T22:40:00,0,28292086,187748
OK,76,28,806,76,2014-10-03T22:45:00,0,28292535,187748
OK,76,28,806,76,2014-10-03T22:50:00,0,28292981,187748